Location: Julian California
(33.0790°N, 116.6010°W)
Time: 14:45:23
(UTC-08:00)

Daily predictions for brighter satellites

Satellite Brightness Start Highest point End
(mag) Time Altitude Azimuth Time Altitude Azimuth Time Altitude Azimuth
Abrixas rocket 3.5 18:02:00 10° WSW 18:05:08 37° NW 18:08:17 10° NE
Meteor 2-4 Rocket 4.4 18:00:43 10° NNE 18:05:29 30° ENE 18:10:09 10° SE
OAO 3 Rocket 4.4 18:02:15 10° SSW 18:06:30 29° SSE 18:10:43 10° E
Cosmos 2219 Rocket 3.8 18:03:40 10° NNE 18:06:40 15° NE 18:09:40 10° E
Cosmos 2360 Rocket 2.2 18:01:47 10° NNW 18:07:23 63° ENE 18:12:58 10° SSE
Cosmos 2219 3.3 18:05:28 10° S 18:11:08 64° ESE 18:16:48 10° NNE
Meteor 1-13 Rocket 4.2 18:07:15 10° N 18:12:48 63° E 18:18:25 10° SSE
Atlas Centaur 2 4.1 18:06:50 10° SSW 18:12:48 24° SSE 18:18:02 10° ESE
Cosmos 1536 3.1 18:09:12 10° SSE 18:12:59 45° E 18:16:47 10° NNE
Cosmos 1300 Rocket 3.5 18:08:36 10° S 18:13:00 84° E 18:17:27 10° N
Cosmos 2227 Rocket 3.6 18:09:47 10° SE 18:13:19 17° E 18:16:51 10° ENE
Helios 1B rocket 4.3 18:13:17 10° E 18:14:15 11° E 18:15:13 10° ESE
BREEZE-M DEB (TANK) 4.0 18:19:33 10° N 18:21:53 20° NE 18:25:25 12° E
Cosmos 1602 4.4 18:20:24 10° SSW 18:24:11 58° W 18:28:03 10° N
Cosmos 1340 3.2 18:23:10 10° NNW 18:26:55 64° W 18:30:37 10° S
ATLAS CENTAUR R/B 2.3 18:22:55 10° SSW 18:29:03 44° SE 18:31:14 15° ENE
Resurs 01 Rocket 2.3 18:31:48 10° SE 18:35:41 32° ENE 18:39:36 10° N
Cosmos 1741 Rocket 4.4 18:31:14 10° SSW 18:36:24 66° WNW 18:41:36 10° N
BREEZE-M DEB (TANK) 2.7 18:34:58 10° NW 18:41:08 83° NE 18:43:02 19° SE
NOAA 12 4.4 18:37:40 10° S 18:42:57 74° WSW 18:48:17 10° NNW
Resurs 1-3 4.2 18:41:58 10° SE 18:45:55 34° ENE 18:49:53 10° N
GPS 2-04 Rocket1 3.1 18:42:02 10° W 18:46:14 62° N 18:48:43 24° ENE
Longmarch 3A Rocket 2.7 18:45:10 10° SW 18:46:37 19° S 18:47:33 16° SSE
FENGYUN 3A 3.6 18:45:35 10° SSE 18:50:55 67° ENE 18:56:18 10° N
Intercosmos 24 4.3 18:48:28 10° S 18:52:34 84° E 18:58:27 10° N
Cosmos 2327 Rocket 4.4 18:46:28 10° S 18:52:39 79° E 18:58:58 10° N
Genesis I 3.2 18:48:48 10° NNW 18:52:44 80° WSW 18:56:37 10° SSE
OTV 4 0.5 18:50:04 10° WSW 18:53:01 67° NNW 18:53:54 39° NE
Cosmos 2333 Rocket 3.1 18:48:19 10° N 18:53:17 29° ENE 18:55:05 25° E
Okean 1 Rocket 4.5 18:49:49 10° SSW 18:54:03 42° W 18:58:18 10° N
GEOS 3 Rocket 3.6 18:50:58 10° NE 18:56:13 75° ESE 19:01:30 10° SSW
Cosmos 1570 Rocket 4.1 18:54:40 10° NNW 18:59:53 79° WSW 19:05:07 10° S
Cosmos 1892 Rocket 3.9 18:58:21 10° N 19:02:27 39° E 19:03:26 34° ESE
Cosmos 1025 Rocket 3.0 19:00:06 10° N 19:04:30 89° W 19:08:53 10° S
SL-19 R/B 4.3 18:59:45 10° SSE 19:05:21 72° ENE 19:11:20 10° N
Cosmos 468 Rocket 4.4 19:02:49 10° N 19:07:47 41° ENE 19:09:06 35° ESE
Spot 2 Rocket 3.3 19:03:15 10° SSE 19:08:16 74° ENE 19:13:19 10° N
Cosmos 2074 Rocket 4.4 19:06:20 10° SSW 19:12:31 65° W 19:18:45 10° N
Hubble Space Telescope 1.3 19:09:50 10° WSW 19:13:45 42° S 19:14:18 40° SSE
Skynet4D Del rocket 4.2 19:08:48 10° WSW 19:13:51 41° S 19:15:24 33° SE
Cosmos 2082 3.7 19:09:42 10° S 19:15:17 58° ESE 19:20:07 14° NNE
Spot 1 4.4 19:17:28 42° NE 19:17:28 42° NE 19:20:40 10° N
FengYun 1-2 T 4.4 19:12:02 10° S 19:17:28 71° WSW 19:22:58 10° NNW
USA 229 DEB 3.7 19:11:08 10° NNW 19:18:18 74° ENE 19:22:57 24° SE
USA 229 3.7 19:11:14 10° NNW 19:18:24 73° ENE 19:22:59 25° SE
Cosmos 1544 Rocket 3.4 19:17:02 10° S 19:21:20 88° ESE 19:25:40 10° N
Meteor 2-13 Rocket 4.4 19:16:44 10° S 19:22:47 84° W 19:28:53 10° N
H-2A R/B 2.9 19:21:21 20° S 19:23:47 68° W 19:27:30 10° NNW
Cosmos 405 Rocket 2.6 19:19:57 10° N 19:23:51 77° NE 19:23:51 77° NE
CZ-2D R/B 3.1 19:24:56 79° NNE 19:24:56 79° NNE 19:28:33 10° N
Envisat 4.5 19:27:13 22° NNE 19:27:13 22° NNE 19:29:21 10° N
ALOS 3.4 19:22:43 10° S 19:27:09 44° W 19:31:38 10° NNW
Cosmos 1814 Rocket 4.3 19:24:00 10° N 19:28:11 44° NE 19:28:11 44° NE
Cosmos 2297 Rocket 2.0 19:30:40 10° SSW 19:36:17 77° ESE 19:38:27 39° NNE
Cosmos 2237 Rocket 2.5 19:33:33 10° N 19:38:23 49° NE 19:38:23 49° NE
Nadezhda 3 Rocket 3.8 19:35:33 10° N 19:41:43 79° E 19:44:37 34° SSE
CZ-3 Stage 3 4.0 18:57:20 10° SW 19:42:10 51° SSE 19:45:34 40° ESE
NOSS 0 Rocket 3.7 19:36:02 10° NNW 19:42:12 78° ENE 19:43:18 61° SE
Meteor 1-12 Rocket 4.3 19:37:08 10° S 19:43:08 86° W 19:49:05 10° N
COSMOS 2428 3.9 19:38:07 10° NW 19:43:24 41° WSW 19:48:40 10° S
Helios 1A 3.9 19:46:45 42° NNW 19:46:45 42° NNW 19:49:37 10° NNW
Cosmos 2341 Rocket 3.9 19:41:08 10° S 19:47:29 86° E 19:53:53 10° N
Cosmos 2154 Rocket 4.3 19:42:15 10° SSW 19:48:31 68° W 19:54:51 10° N
NOSS 3-1 (C) 4.1 19:41:21 10° NNW 19:48:56 55° NE 19:49:43 53° ENE
Helios 1B rocket 3.4 19:45:47 10° N 19:49:45 45° WNW 19:53:41 10° SSW
OAO 3 Rocket 3.5 19:44:50 10° WSW 19:49:00 63° WSW 19:49:00 63° WSW
Cosmos 2219 Rocket 2.4 19:45:32 10° NNW 19:51:06 68° WSW 19:52:36 47° S
Cosmos 1486 Rocket 4.4 19:48:46 10° SSW 19:54:01 61° WNW 19:57:37 20° N
Cosmos 2227 Rocket 2.9 19:51:23 10° SW 19:56:51 51° WNW 20:02:21 10° N
Cosmos 1455 Rocket 4.3 19:54:45 10° SSW 19:58:52 39° W 20:02:58 10° N
Atlas Centaur 2 3.0 19:55:01 10° WSW 20:01:07 45° S 20:01:07 45° S
Resurs 01 Rocket 4.3 20:09:15 10° SW 20:12:10 17° W 20:15:07 10° NW
SL-16 R/B 4.1 20:09:39 10° N 20:11:12 18° N 20:11:12 18° N
Cosmos 2333 Rocket 3.7 20:32:25 10° NW 20:37:10 32° W 20:37:10 32° W
